Change the Weather History Date:

Monday, February 20, 2012

  Actual Average Record
Temperature  
Mean Temperature 66 °F -  
Max Temperature 71 °F 68 °F 85 °F (1986)
Min Temperature 60 °F 53 °F 36 °F (1978)
Growing Degree Days 16 (Base 50)    
Moisture  
Dew Point 59 °F    
Average Humidity 80    
Maximum Humidity 97    
Minimum Humidity 64    
Precipitation  
Precipitation 0.00 in - - ()
Sea Level Pressure  
Sea Level Pressure 30.04 in    
Wind  
Wind Speed 9 mph (SE)    
Max Wind Speed 14 mph    
Max Gust Speed 18 mph    
Visibility 10 miles    
Events      
Averages and records for this station are not official NWS values.
T = Trace of Precipitation, MM = Missing Value Source: NWS Daily Summary

Daily Weather History Graph

Daily Weather History Graph

Search for Another Location

Airport or City:

Trip Planner

Search our weather history database for the weather conditions in past years. The results will help you decide how hot, cold, wet, or windy it might be!

Date:

Astronomy

Feb. 20, 2012 Rise Set
Actual Time 7:01 AM CST 6:22 PM CST
Civil Twilight 6:38 AM CST 6:46 PM CST
Nautical Twilight 6:10 AM CST 7:13 PM CST
Astronomical Twilight 5:43 AM CST 7:40 PM CST
Moon 5:56 AM CST (2/20) 5:28 PM CST (2/20)
Length of Visible Light 12h 08m
Length of Day
11h 20m
Waning Crescent, 1% of the Moon is Illuminated
Feb 20
Waning Crescent
Feb 21
New
Feb 29
First Quarter
Mar 8
Full
Mar 14
Last Quarter

Hourly Weather History & Observations

Time (CST) Temp. Dew Point Humidity Pressure Visibility Wind Dir Wind Speed Gust Speed Precip Events Conditions
12:53 AM 60.1 °F 54.0 °F 80% 30.05 in 10.0 mi ESE 10.4 mph - N/A   Overcast
1:53 AM 60.1 °F 54.0 °F 80% 30.04 in 10.0 mi ESE 8.1 mph - N/A   Mostly Cloudy
2:53 AM 60.1 °F 55.9 °F 86% 30.02 in 10.0 mi ESE 6.9 mph - N/A   Mostly Cloudy
3:37 AM 60.8 °F 55.4 °F 82% 30.00 in 10.0 mi SE 4.6 mph - N/A   Mostly Cloudy
3:53 AM 60.1 °F 55.9 °F 86% 30.00 in 10.0 mi SSE 4.6 mph - N/A   Overcast
4:07 AM 60.8 °F 55.4 °F 82% 29.99 in 10.0 mi SE 4.6 mph - N/A   Mostly Cloudy
4:53 AM 60.1 °F 55.9 °F 86% 30.00 in 10.0 mi SE 8.1 mph - N/A   Scattered Clouds
5:53 AM 60.1 °F 55.9 °F 86% 29.99 in 10.0 mi ESE 8.1 mph - N/A   Clear
6:53 AM 60.1 °F 57.0 °F 90% 30.01 in 10.0 mi ESE 6.9 mph - N/A   Clear
8:53 AM 64.0 °F 57.9 °F 80% 30.04 in 10.0 mi SE 9.2 mph - N/A   Clear
9:53 AM 66.9 °F 57.9 °F 73% 30.06 in 10.0 mi SE 12.7 mph 18.4 mph N/A   Overcast
10:53 AM 69.1 °F 59.0 °F 70% 30.07 in 10.0 mi SE 10.4 mph - N/A   Overcast
11:10 AM 69.8 °F 59.0 °F 68% 30.07 in 10.0 mi SE 11.5 mph 17.3 mph N/A   Overcast
11:53 AM 69.1 °F 59.0 °F 70% 30.07 in 10.0 mi SE 11.5 mph - N/A   Overcast
12:15 PM 71.6 °F 59.0 °F 64% 30.06 in 10.0 mi SE 13.8 mph - N/A   Overcast
12:33 PM 69.8 °F 60.8 °F 73% 30.06 in 10.0 mi SSE 11.5 mph 16.1 mph N/A   Overcast
12:50 PM 69.8 °F 59.0 °F 68% 30.06 in 10.0 mi SE 9.2 mph - N/A   Overcast
12:53 PM 69.1 °F 59.0 °F 70% 30.06 in 10.0 mi SE 9.2 mph - N/A   Overcast
1:53 PM 68.0 °F 60.1 °F 76% 30.03 in 10.0 mi SE 10.4 mph - N/A   Overcast
2:53 PM 68.0 °F 61.0 °F 78% 30.02 in 10.0 mi SE 8.1 mph - N/A   Overcast
3:28 PM 69.8 °F 60.8 °F 73% 30.01 in 10.0 mi SE 11.5 mph - N/A   Overcast
3:38 PM 68.0 °F 60.8 °F 78% 30.01 in 10.0 mi SE 10.4 mph - N/A   Overcast
3:53 PM 68.0 °F 61.0 °F 78% 30.01 in 10.0 mi SE 11.5 mph - N/A   Mostly Cloudy
4:53 PM 66.9 °F 61.0 °F 81% 30.01 in 10.0 mi SE 10.4 mph - N/A   Overcast
5:53 PM 66.0 °F 61.0 °F 84% 30.02 in 10.0 mi SE 9.2 mph - N/A   Scattered Clouds
6:53 PM 64.9 °F 62.1 °F 90% 30.03 in 10.0 mi SE 8.1 mph - N/A   Clear
9:53 PM 64.9 °F 62.1 °F 90% 30.11 in 10.0 mi East 4.6 mph - N/A   Overcast
10:53 PM 64.0 °F 62.1 °F 93% 30.12 in 9.0 mi East 4.6 mph - N/A   Mostly Cloudy
11:53 PM 63.0 °F 62.1 °F 97% 30.11 in 7.0 mi ESE 4.6 mph - N/A   Clear